• In Belgium
  • List of Countries
  • For 7 days
  • Water Temperature
  • Satellite Maps
  • Weather Map
  • Weather Widgets
  • user-avatar
    Login

    Hourly Weather Korçe

    Today, 15 November, Thursday

    Time Temperature Precipitation Wind Pressure Humidity
    00:00 +5°C° 0 mm 2 mps 669 mmHg 77%
    01:00 +5°C° 0 mm 2 mps 669 mmHg 79%
    02:00 +4°C° 0 mm 2 mps 669 mmHg 79%
    03:00 +4°C° 0 mm 2 mps 669 mmHg 79%
    04:00 +4°C° 0 mm 2 mps 668 mmHg 79%
    05:00 +4°C° 0 mm 2 mps 668 mmHg 79%
    06:00 +3°C° 0 mm 2 mps 668 mmHg 79%
    07:00 +3°C° 0 mm 2 mps 668 mmHg 79%
    08:00 +5°C° 0 mm 2 mps 669 mmHg 69%
    09:00 +7°C° 0 mm 2 mps 669 mmHg 58%
    10:00 +9°C° 0 mm 2 mps 670 mmHg 48%
    11:00 +10°C° 0 mm 2 mps 670 mmHg 43%
    12:00 +12°C° 0 mm 2 mps 670 mmHg 39%
    13:00 +12°C° 0 mm 2 mps 670 mmHg 35%
    14:00 +10°C° 0 mm 2 mps 669 mmHg 38%
    15:00 +9°C° 0 mm 2 mps 669 mmHg 41%
    16:00 +8°C° 0 mm 2 mps 668 mmHg 45%
    17:00 +7°C° 0 mm 2 mps 668 mmHg 47%
    18:00 +6°C° 0 mm 2 mps 668 mmHg 50%
    19:00 +5°C° 0 mm 2 mps 668 mmHg 52%
    20:00 +4°C° 0 mm 2 mps 668 mmHg 54%
    21:00 +3°C° 0 mm 2 mps 668 mmHg 56%
    22:00 +3°C° 0 mm 2 mps 668 mmHg 58%
    23:00 +3°C° 0 mm 2 mps 668 mmHg 59%

    Tomorrow, 16 November, Friday

    Time Temperature Precipitation Wind Pressure Humidity
    00:00 +2°C° 0 mm 2 mps 668 mmHg 61%
    01:00 +2°C° 0 mm 2 mps 668 mmHg 62%
    02:00 +2°C° 0 mm 2 mps 668 mmHg 63%
    03:00 +1°C° 0 mm 2 mps 668 mmHg 64%
    04:00 +1°C° 0 mm 2 mps 668 mmHg 66%
    05:00 +1°C° 0 mm 2 mps 668 mmHg 67%
    06:00 +1°C° 0 mm 2 mps 668 mmHg 68%
    07:00 +1°C° 0 mm 2 mps 668 mmHg 69%
    08:00 +1°C° 0.2 mm 3 mps 668 mmHg 67%
    09:00 +3°C° 0.2 mm 3 mps 668 mmHg 65%
    10:00 +4°C° 0.2 mm 3 mps 669 mmHg 63%
    11:00 +4°C° 0.5 mm 3 mps 668 mmHg 65%
    12:00 +4°C° 0.5 mm 3 mps 668 mmHg 67%
    13:00 +4°C° 0.5 mm 3 mps 668 mmHg 69%
    14:00 +4°C° 0.6 mm 2 mps 668 mmHg 72%
    15:00 +4°C° 0.6 mm 2 mps 668 mmHg 76%
    16:00 +3°C° 0.6 mm 2 mps 668 mmHg 79%
    17:00 +3°C° 0.7 mm 2 mps 668 mmHg 81%
    18:00 +3°C° 0.7 mm 2 mps 668 mmHg 82%
    19:00 +2°C° 0.7 mm 2 mps 668 mmHg 84%
    20:00 +2°C° 0.5 mm 2 mps 668 mmHg 84%
    21:00 +2°C° 0.5 mm 2 mps 668 mmHg 85%
    22:00 +2°C° 0.5 mm 2 mps 668 mmHg 85%
    23:00 +2°C° 0.2 mm 2 mps 668 mmHg 86%

    Day after tomorrow, 17 November, Saturday

    Time Temperature Precipitation Wind Pressure Humidity
    00:00 +1°C° 0.2 mm 2 mps 668 mmHg 86%
    01:00 +1°C° 0.2 mm 2 mps 668 mmHg 86%
    02:00 +1°C° 0.1 mm 2 mps 668 mmHg 87%
    03:00 +1°C° 0.1 mm 2 mps 668 mmHg 87%
    04:00 0°C° 0.1 mm 3 mps 667 mmHg 87%
    05:00 0°C° 0.2 mm 3 mps 668 mmHg 87%
    06:00 0°C° 0.2 mm 3 mps 668 mmHg 86%
    07:00 0°C° 0.2 mm 3 mps 668 mmHg 86%
    08:00 +1°C° 0.2 mm 3 mps 668 mmHg 84%
    09:00 +2°C° 0.2 mm 3 mps 668 mmHg 82%
    10:00 +2°C° 0.2 mm 3 mps 669 mmHg 80%
    11:00 +2°C° 0.1 mm 3 mps 668 mmHg 78%
    12:00 +3°C° 0.1 mm 3 mps 668 mmHg 77%
    13:00 +3°C° 0.1 mm 3 mps 668 mmHg 75%
    14:00 +3°C° 0 mm 3 mps 668 mmHg 76%
    15:00 +2°C° 0 mm 3 mps 668 mmHg 77%
    16:00 +2°C° 0 mm 3 mps 667 mmHg 78%
    17:00 +1°C° 0 mm 3 mps 667 mmHg 80%
    18:00 +1°C° 0 mm 3 mps 667 mmHg 82%
    19:00 0°C° 0 mm 3 mps 667 mmHg 83%
    20:00 0°C° 0 mm 3 mps 667 mmHg 83%
    21:00 0°C° 0 mm 3 mps 667 mmHg 84%
    22:00 -1°C° 0 mm 3 mps 667 mmHg 84%
    23:00 -1°C° 0 mm 3 mps 667 mmHg 84%

    18 November, Sunday

    Time Temperature Precipitation Wind Pressure Humidity
    00:00 -1°C° 0 mm 3 mps 667 mmHg 84%
    01:00 -1°C° 0 mm 3 mps 666 mmHg 84%
    02:00 -1°C° 0 mm 3 mps 666 mmHg 84%
    03:00 -1°C° 0 mm 3 mps 666 mmHg 84%
    04:00 -1°C° 0 mm 3 mps 666 mmHg 84%
    05:00 0°C° 0 mm 3 mps 666 mmHg 83%
    06:00 0°C° 0 mm 3 mps 666 mmHg 83%
    07:00 0°C° 0 mm 3 mps 666 mmHg 83%
    08:00 +1°C° 0.1 mm 3 mps 666 mmHg 81%
    09:00 +1°C° 0.1 mm 3 mps 666 mmHg 80%
    10:00 +2°C° 0.1 mm 3 mps 666 mmHg 79%
    11:00 +2°C° 0.3 mm 3 mps 666 mmHg 79%
    12:00 +2°C° 0.3 mm 3 mps 665 mmHg 79%
    13:00 +3°C° 0.3 mm 3 mps 665 mmHg 80%
    14:00 +3°C° 0.8 mm 2 mps 665 mmHg 82%
    15:00 +3°C° 0.8 mm 2 mps 664 mmHg 83%
    16:00 +3°C° 0.8 mm 2 mps 664 mmHg 85%
    17:00 +2°C° 1.3 mm 2 mps 663 mmHg 86%
    18:00 +2°C° 1.3 mm 2 mps 663 mmHg 87%
    19:00 +2°C° 1.3 mm 2 mps 663 mmHg 88%
    20:00 +2°C° 1.1 mm 2 mps 663 mmHg 88%
    21:00 +2°C° 1.1 mm 2 mps 663 mmHg 88%
    22:00 +2°C° 1.1 mm 2 mps 662 mmHg 88%
    23:00 +2°C° 0.6 mm 2 mps 662 mmHg 88%

    19 November, Monday

    Time Temperature Precipitation Wind Pressure Humidity
    00:00 +2°C° 0.6 mm 2 mps 662 mmHg 88%
    01:00 +2°C° 0.6 mm 2 mps 662 mmHg 89%
    02:00 +2°C° 0.7 mm 2 mps 661 mmHg 89%
    03:00 +2°C° 0.7 mm 2 mps 661 mmHg 89%
    04:00 +2°C° 0.7 mm 2 mps 661 mmHg 89%
    05:00 +1°C° 0.2 mm 2 mps 661 mmHg 89%
    06:00 +1°C° 0.2 mm 2 mps 661 mmHg 89%
    07:00 +1°C° 0.2 mm 2 mps 661 mmHg 89%
    08:00 +3°C° 0 mm 1 mps 661 mmHg 85%
    09:00 +5°C° 0 mm 1 mps 662 mmHg 82%
    10:00 +6°C° 0 mm 1 mps 662 mmHg 79%
    11:00 +7°C° 0 mm 1 mps 662 mmHg 78%
    12:00 +7°C° 0 mm 1 mps 662 mmHg 77%
    13:00 +8°C° 0 mm 1 mps 662 mmHg 76%
    14:00 +8°C° 0 mm 1 mps 662 mmHg 78%
    15:00 +7°C° 0 mm 1 mps 662 mmHg 80%
    16:00 +7°C° 0 mm 1 mps 662 mmHg 82%
    17:00 +6°C° 0 mm 1 mps 662 mmHg 85%
    18:00 +6°C° 0 mm 1 mps 663 mmHg 87%
    19:00 +4°C° 0 mm 2 mps 663 mmHg 90%
    20:00 +4°C° 0 mm 2 mps 663 mmHg 91%
    21:00 +4°C° 0 mm 2 mps 663 mmHg 92%
    22:00 +4°C° 0 mm 2 mps 663 mmHg 92%
    23:00 +4°C° 0 mm 2 mps 663 mmHg 92%

    20 November, Tuesday

    Time Temperature Precipitation Wind Pressure Humidity
    00:00 +4°C° 0 mm 2 mps 663 mmHg 92%
    01:00 +3°C° 0 mm 3 mps 663 mmHg 91%
    02:00 +3°C° 0.1 mm 3 mps 663 mmHg 89%
    03:00 +3°C° 0.1 mm 3 mps 662 mmHg 87%
    04:00 +4°C° 0.1 mm 3 mps 662 mmHg 84%
    05:00 +4°C° 0.8 mm 3 mps 662 mmHg 85%
    06:00 +4°C° 0.8 mm 3 mps 662 mmHg 87%
    07:00 +4°C° 0.8 mm 3 mps 662 mmHg 88%
    08:00 +5°C° 0.4 mm 4 mps 663 mmHg 86%
    09:00 +5°C° 0.4 mm 4 mps 663 mmHg 84%
    10:00 +6°C° 0.4 mm 4 mps 663 mmHg 83%
    11:00 +6°C° 1.1 mm 4 mps 663 mmHg 84%
    12:00 +6°C° 1.1 mm 4 mps 662 mmHg 85%
    13:00 +6°C° 1.1 mm 4 mps 662 mmHg 87%
    14:00 +6°C° 2.5 mm 4 mps 662 mmHg 88%
    15:00 +6°C° 2.5 mm 4 mps 661 mmHg 90%
    16:00 +6°C° 2.5 mm 4 mps 661 mmHg 92%
    17:00 +6°C° 1.1 mm 4 mps 661 mmHg 92%
    18:00 +6°C° 1.1 mm 4 mps 661 mmHg 92%
    19:00 +6°C° 1.1 mm 4 mps 660 mmHg 92%
    20:00 +6°C° 1.6 mm 4 mps 660 mmHg 92%
    21:00 +6°C° 1.6 mm 5 mps 660 mmHg 92%
    22:00 +6°C° 1.6 mm 5 mps 660 mmHg 92%
    23:00 +6°C° 1.6 mm 5 mps 660 mmHg 93%
    Show more